Tracking 19832 objects as of 26-Aug-2019
HD Live streaming from Space Station
objects crossing your sky now

CHINASAT 2D

Track CHINASAT 2D now!


NORAD ID: 43920
Int'l Code: 2019-001A
Perigee: 35,789.1 km
Apogee: 35,797.5 km
Inclination: 0.0 °
Period: 1,436.1 minutes
Semi major axis: 42164 km
RCS: Unknown
Launch date: January 10, 2019
Source: People's Republic of China (PRC)
Launch site: Xichang Space Center, China (XSC)
aabbcc
Your satellite tracking list
Your tracking list is empty




NASA's NSSDC Master Catalog

Two Line Element Set (TLE):
1 43920U 19001A   19237.92403949 -.00000344 +00000-0 +00000-0 0  9993
2 43920 000.0328 296.1586 0000999 206.4330 293.9722 01.00273427002423
Source of the keplerian elements: AFSPC